Date String (YYYY-MM-DD hh:mm:ss) UTC,Instrument flags,Ambient pressure (hPa),Sample flow (lpm),Bypass flow (lpm),Sample temperature (°C),Ambient temperature (°C),ASC tube jacket temperature (°C),LED temperature (°C),Box temperature (°C),Sample RH (%),Span deviation,Mass concentration (μg/m³),Mass concentration (μg/m³),Mass concentration (μg/m³)
DateTimeUTC,F1_M11,P_M11,Q1_M11,Q2_M11,T1_M11,T2_M11,T3_M11,T4_M11,T5_M11,U1_M11,ZSPAN_M11,X0_M11,X2_M11,X1_M11
2021-11-06 23:00:00,,0824.8,4.99,0.00,30.0,29.1,00.0,38.9,31.8,06.6,0000.0,0010.43,0003.03,0001.62
2021-11-06 23:01:00,,0824.8,5.01,0.00,30.0,29.3,00.0,38.9,31.9,06.6,0000.0,0011.34,0003.07,0001.62
2021-11-06 23:02:00,,0824.8,5.00,0.00,30.1,29.4,00.0,38.9,32.0,06.6,0000.0,0011.39,0003.07,0001.62
2021-11-06 23:03:00,,0824.8,4.99,0.00,30.1,28.9,00.0,38.9,31.9,06.6,0000.0,0011.49,0003.12,0001.64
2021-11-06 23:04:00,,0824.8,5.01,0.00,30.0,26.7,00.0,38.9,31.4,06.7,0000.0,0010.82,0003.09,0001.65
2021-11-06 23:05:00,,0824.8,5.00,0.00,29.9,25.8,00.0,38.9,31.2,06.8,0000.0,0011.10,0003.12,0001.66
2021-11-06 23:06:00,,0824.9,5.00,0.00,29.8,26.1,00.0,38.9,31.3,06.7,0000.0,0011.02,0003.09,0001.66
2021-11-06 23:07:00,,0824.8,4.99,0.00,29.7,26.5,00.0,38.8,31.2,06.4,0000.0,0010.69,0002.95,0001.65
2021-11-06 23:08:00,,0824.8,5.01,0.00,29.7,27.0,00.0,38.8,31.2,06.1,0000.0,0010.05,0002.89,0001.63
2021-11-06 23:09:00,,0824.8,4.98,0.00,29.7,27.5,00.0,38.7,31.3,06.2,0000.0,0008.88,0002.83,0001.60
2021-11-06 23:10:00,,0824.8,5.01,0.00,29.7,27.9,00.0,38.7,31.4,06.2,0000.0,0009.15,0002.86,0001.59
2021-11-06 23:11:00,,0824.9,5.00,0.00,29.7,28.2,00.0,38.7,31.5,06.2,0000.0,0009.22,0002.78,0001.58
2021-11-06 23:12:00,,0824.9,4.99,0.00,29.8,28.4,00.0,38.7,31.5,06.2,0000.0,0008.58,0002.75,0001.56
2021-11-06 23:13:00,,0824.9,5.01,0.00,29.8,28.7,00.0,38.7,31.6,06.3,0000.0,0008.45,0002.74,0001.56
2021-11-06 23:14:00,,0824.8,5.00,0.00,29.8,28.8,00.0,38.8,31.7,06.3,0000.0,0008.33,0002.74,0001.56
2021-11-06 23:15:00,,0824.9,4.99,0.00,29.9,29.0,00.0,38.8,31.7,06.4,0000.0,0008.34,0002.74,0001.54
2021-11-06 23:16:00,,0824.9,5.00,0.00,29.9,29.1,00.0,38.8,31.8,06.4,0000.0,0008.00,0002.76,0001.52
2021-11-06 23:17:00,,0824.9,5.01,0.00,30.0,29.2,00.0,38.8,31.9,06.4,0000.0,0007.91,0002.80,0001.52
2021-11-06 23:18:00,,0824.9,4.99,0.00,30.0,29.3,00.0,38.9,31.9,06.3,0000.0,0008.22,0002.88,0001.52
2021-11-06 23:19:00,,0824.9,4.99,0.00,30.1,28.8,00.0,38.9,31.8,06.2,0000.0,0008.55,0002.94,0001.53
2021-11-06 23:20:00,,0824.9,5.01,0.00,30.0,26.5,00.0,38.9,31.3,06.3,0000.0,0009.59,0002.99,0001.55
2021-11-06 23:21:00,,0824.9,4.99,0.00,29.8,25.5,00.0,38.8,31.1,06.6,0000.0,0009.58,0002.96,0001.56
2021-11-06 23:22:00,,0824.9,5.00,0.00,29.7,25.8,00.0,38.8,31.1,06.8,0000.0,0009.60,0003.00,0001.58
2021-11-06 23:23:00,,0825.0,4.99,0.00,29.6,26.4,00.0,38.7,31.1,06.8,0000.0,0009.44,0003.03,0001.58
2021-11-06 23:24:00,,0824.9,5.00,0.00,29.6,26.9,00.0,38.7,31.2,06.6,0000.0,0010.03,0003.04,0001.57
2021-11-06 23:25:00,,0824.9,4.99,0.00,29.6,27.3,00.0,38.7,31.2,06.4,0000.0,0009.95,0002.95,0001.56
2021-11-06 23:26:00,,0824.9,5.02,0.00,29.6,27.7,00.0,38.7,31.3,06.3,0000.0,0009.83,0002.89,0001.56
2021-11-06 23:27:00,,0825.1,4.99,0.00,29.6,28.1,00.0,38.7,31.4,06.6,0000.0,0009.68,0002.82,0001.58
2021-11-06 23:28:00,,0825.1,4.99,0.00,29.7,28.3,00.0,38.7,31.5,07.2,0000.0,0009.85,0002.78,0001.58
2021-11-06 23:29:00,,0825.2,4.99,0.00,29.7,28.5,00.0,38.7,31.5,06.9,0000.0,0010.43,0002.72,0001.58
2021-11-06 23:30:00,,0825.2,5.00,0.00,29.8,28.7,00.0,38.7,31.6,06.6,0000.0,0011.15,0002.75,0001.57
2021-11-06 23:31:00,,0825.2,5.01,0.00,29.8,28.8,00.0,38.7,31.7,06.3,0000.0,0010.40,0002.75,0001.59
2021-11-06 23:32:00,,0825.2,5.00,0.00,29.8,28.9,00.0,38.7,31.7,06.4,0000.0,0010.55,0002.89,0001.60
2021-11-06 23:33:00,,0825.2,5.01,0.00,29.9,29.0,00.0,38.7,31.8,06.4,0000.0,0011.14,0003.01,0001.62
2021-11-06 23:34:00,,0825.3,4.99,0.00,29.9,29.1,00.0,38.8,31.8,06.3,0000.0,0011.08,0002.99,0001.64
2021-11-06 23:35:00,,0825.2,5.00,0.00,30.0,29.2,00.0,38.8,31.9,06.2,0000.0,0010.42,0002.98,0001.65
2021-11-06 23:36:00,,0825.2,5.01,0.00,30.0,29.3,00.0,38.8,31.9,06.0,0000.0,0010.67,0003.01,0001.66
2021-11-06 23:37:00,,0825.3,5.01,0.00,30.1,29.3,00.0,38.9,32.0,05.9,0000.0,0011.26,0003.06,0001.66
2021-11-06 23:38:00,,0825.3,4.99,0.00,30.1,29.4,00.0,38.9,32.0,06.0,0000.0,0011.52,0003.13,0001.65
2021-11-06 23:39:00,,0825.3,5.00,0.00,30.1,29.2,00.0,38.9,32.0,06.0,0000.0,0011.35,0003.20,0001.66
2021-11-06 23:40:00,,0825.3,5.01,0.00,30.1,27.2,00.0,38.9,31.6,05.8,0000.0,0010.90,0003.25,0001.68
2021-11-06 23:41:00,,0825.3,4.99,0.00,30.0,26.5,00.0,38.9,31.5,05.8,0000.0,0010.45,0003.26,0001.69
2021-11-06 23:42:00,,0825.2,4.99,0.00,29.9,26.8,00.0,38.9,31.5,05.8,0000.0,0010.99,0003.27,0001.70
2021-11-06 23:43:00,,0825.3,5.01,0.00,29.8,27.2,00.0,38.8,31.4,05.8,0000.0,0012.17,0003.25,0001.69
2021-11-06 23:44:00,,0825.3,4.99,0.00,29.8,27.5,00.0,38.8,31.5,05.8,0000.0,0012.86,0003.18,0001.70
2021-11-06 23:45:00,,0825.3,5.01,0.00,29.8,27.9,00.0,38.8,31.6,05.7,0000.0,0012.76,0003.20,0001.69
2021-11-06 23:46:00,,0825.3,5.00,0.00,29.9,28.2,00.0,38.8,31.6,05.8,0000.0,0013.55,0003.20,0001.69
2021-11-06 23:47:00,,0825.3,5.00,0.00,29.9,28.5,00.0,38.8,31.7,05.8,0000.0,0013.90,0003.25,0001.71
2021-11-06 23:48:00,,0825.3,4.99,0.00,29.9,28.7,00.0,38.8,31.7,05.8,0000.0,0014.14,0003.28,0001.71
2021-11-06 23:49:00,,0825.3,5.01,0.00,29.9,28.9,00.0,38.9,31.8,05.8,0000.0,0014.66,0003.25,0001.72
2021-11-06 23:50:00,,0825.3,5.00,0.00,30.0,29.0,00.0,38.9,31.8,05.7,0000.0,0014.56,0003.19,0001.71
2021-11-06 23:51:00,,0825.3,5.01,0.00,30.0,29.1,00.0,38.9,31.9,05.7,0000.0,0014.64,0003.17,0001.71
2021-11-06 23:52:00,,0825.3,5.00,0.00,30.1,29.2,00.0,38.9,31.9,05.6,0000.0,0014.12,0003.20,0001.72
2021-11-06 23:53:00,,0825.3,5.00,0.00,30.1,29.3,00.0,38.9,31.9,05.6,0000.0,0014.42,0003.22,0001.72
2021-11-06 23:54:00,,0825.3,4.99,0.00,30.1,29.4,00.0,39.0,32.0,05.6,0000.0,0012.80,0003.21,0001.72
2021-11-06 23:55:00,,0825.4,5.01,0.00,30.2,29.5,00.0,39.0,32.0,05.6,0000.0,0011.72,0003.21,0001.70
2021-11-06 23:56:00,,0825.4,5.00,0.00,30.2,29.5,00.0,39.0,32.1,05.7,0000.0,0012.22,0003.23,0001.71
2021-11-06 23:57:00,,0825.3,5.00,0.00,30.2,28.7,00.0,39.0,31.9,05.7,0000.0,0012.05,0003.25,0001.71
2021-11-06 23:58:00,,0825.3,5.00,0.00,30.1,26.7,00.0,39.0,31.5,05.7,0000.0,0012.49,0003.29,0001.71
2021-11-06 23:59:00,,0825.4,5.00,0.00,30.0,26.5,00.0,39.0,31.5,05.7,0000.0,0012.40,0003.32,0001.71
